Regional Weather Roundup
Issued by NWS Cleveland, OH

Home | Current Version | Previous Version | Graphics & Text | Print | Product List | Glossary On
Versions: 1 2 3 4 5 6 7 8 9 10 11 12 13 14 15 16 17 18 19 20 21 22 23 24 25 26 27 28 29 30 31 32 33 34 35 36 37 38 39 40 41 42 43 44 45 46 47 48 49 50
000
ASUS41 KCLE 191300
RWRCLE
OHIO REGIONAL WEATHER ROUNDUP
NATIONAL WEATHER SERVICE WILMINGTON, OH
800 AM EST SUN FEB 19 2017

NOTE: "FAIR" INDICATES FEW OR NO CLOUDS BELOW 12,000 FEET WITH NO
SIGNIFICANT WEATHER AND/OR OBSTRUCTIONS TO VISIBILITY.

OHZ001>008-015>018-024>027-034-035-043-044-191400-
   NORTHWEST OHIO

CITY           SKY/WX    TMP DP  RH WIND       PRES   REMARKS
DEFIANCE       FAIR      37  37 100 SW3       29.99R FOG
FINDLAY        FOG       44  41  89 W10       29.97R VSB 1/4
TOLEDO EXPRESS FAIR      40  38  93 SW8       29.95R
TOLEDO EXEC    FAIR      40  38  93 SW10      29.96R FOG
LIMA           CLOUDY    45  45 100 W10       29.99R FOG
$$

OHZ009>014-019>023-028>033-038-089-191400-
   NORTHEAST OHIO

CITY           SKY/WX    TMP DP  RH WIND       PRES   REMARKS
CLE-HOPKINS    FAIR      44  39  82 SW6       29.96R
CLE-LAKEFRONT  FAIR      45  40  82 SW9       29.93R
CUY CO. ARPT   MOCLDY    43  39  87 MISG      29.93R
LORAIN-ELYRIA  FAIR      40  37  89 W6        29.95R FOG
ASHTABULA      FAIR      39  37  92 CALM      29.93R
AKRON-CANTON   FAIR      40  38  93 SW8       29.94R FOG
WOOSTER        NOT AVBL
MANSFIELD      CLOUDY    44  44 100 W10       29.96R FOG
YOUNGSTOWN     FAIR      41  39  93 SW6       29.93R FOG
$$

OHZ042-051>053-060>062-070>072-077>081-191400-
  SOUTHWEST OHIO

CITY           SKY/WX    TMP DP  RH WIND       PRES   REMARKS
CINC-COVINGTON CLOUDY    48  46  93 W8        30.04R FOG
CINC-LUNKEN    CLOUDY    49  47  93 SW3       30.05R
HAMILTON       CLOUDY    48  47  96 W5        30.04R FOG
DAYTON         NOT AVBL
WRIGHT-PAT AFB NOT AVBL
DAYTON GENERAL CLOUDY    46  45  96 W7        30.01R FOG
WILMINGTON     CLOUDY    46  45  96 W12       30.01R FOG
$$

OHZ036-037-039>041-045>050-054>059-063>069-073>076-082>088-191400-
  CENTRAL AND SOUTHEAST OHIO

CITY           SKY/WX    TMP DP  RH WIND       PRES   REMARKS
COLUMBUS       CLOUDY    46  43  89 S3        30.00R FOG
OSU AIRPORT    CLOUDY    45  44  97 SW5       30.00R FOG
BOLTON FIELD   CLOUDY    39  39 100 CALM      30.01R FOG
RICKENBACK AFB NOT AVBL
NEWARK         CLOUDY    47  44  90 SW6       29.99R FOG
MARION         CLOUDY    46  44  93 W8        29.98R FOG
LANCASTER      CLOUDY    48  45  89 SW7       30.01R FOG
ZANESVILLE     CLOUDY    49  44  83 W6        30.00R HAZE
NEW PHILLY     CLOUDY    46  44  93 CALM      29.98R FOG
$$




USA.gov is the U.S. government's official web portal to all federal, state and local government web resources and services.